Location: Seattle
(47.6064°N, 122.3308°W)
Time: 01:48:43
(UTC-08:00)

Tiros 1 - Pass Details

Date: 01 December 2020
Orbit: 630 x 663 km, 48.4° (Epoch: 28 January)

Event Time Altitude Azimuth Distance (km) Brightness Sun altitude
Rises 16:08:39 0° 257° (WSW) 2,992 12.1 0.7°
Reaches altitude 10° 16:11:00 10° 257° (WSW) 2,079 11.3 0.4°
Maximum altitude 16:15:49 89° 179° (S) 666 7.3 -0.3°
Drops below altitude 10° 16:20:37 10° 79° (E) 2,072 9.2 -1.0°
Sets 16:22:57 0° 80° (E) 2,980 10.0 -1.3°
Enters shadow 16:23:06 - 80° (E) 3,033 10.0 -1.3°
